C2014 PASY-PADQ

Flight info

Callsign C2014
Flight time N/A
Altitude 10000
Route FORCS DCT SYA T227 WIXER T388 BAILY
Aircraft C30J/H-VGDW/C

Departure

Time 2026-05-05 00:38
Airport Eareckson Air Station (PASY)

Arrival

Time N/A
Airport Kodiak Airport (PADQ)
Time Latitude Longitude Altitude Speed Heading
2026-05-05 00:11 52.71444 174.11138 95 ft 0 kts 218°
2026-05-05 00:34 52.71430 174.11114 96 ft 4 kts 239°
2026-05-05 00:34 52.71430 174.11052 97 ft 6 kts 285°
2026-05-05 00:35 52.71443 174.10967 96 ft 10 kts 285°
2026-05-05 00:35 52.71469 174.10831 96 ft 15 kts 288°
2026-05-05 00:35 52.71505 174.10641 97 ft 20 kts 288°
2026-05-05 00:35 52.71552 174.10401 98 ft 24 kts 288°
2026-05-05 00:36 52.71577 174.10231 99 ft 6 kts 254°
2026-05-05 00:36 52.71533 174.10176 99 ft 12 kts 205°
2026-05-05 00:36 52.71475 174.10140 100 ft 2 kts 184°
2026-05-05 00:36 52.71465 174.10150 99 ft 5 kts 130°
2026-05-05 00:37 52.71462 174.10168 99 ft 3 kts 107°
2026-05-05 00:37 52.71362 174.10677 98 ft 102 kts 107°
2026-05-05 00:37 52.71054 174.12184 213 ft 168 kts 108°
2026-05-05 00:37 52.70623 174.14267 380 ft 213 kts 108°
2026-05-05 00:38 52.70111 174.16734 652 ft 240 kts 109°
2026-05-05 00:38 52.69544 174.19414 936 ft 255 kts 109°
2026-05-05 00:38 52.68957 174.22144 1585 ft 251 kts 110°
2026-05-05 00:38 52.68370 174.24843 2239 ft 250 kts 110°
2026-05-05 00:39 52.67777 174.27534 2868 ft 250 kts 110°
2026-05-05 00:39 52.67180 174.30216 3479 ft 244 kts 110°
2026-05-05 00:39 52.66587 174.32844 4066 ft 247 kts 110°
2026-05-05 00:39 52.65975 174.35514 4684 ft 251 kts 111°
2026-05-05 00:40 52.65346 174.38224 5277 ft 255 kts 111°
2026-05-05 00:40 52.64703 174.40959 5892 ft 258 kts 110°
2026-05-05 00:40 52.63903 174.43598 6492 ft 262 kts 130°
2026-05-05 00:40 52.62466 174.45492 7063 ft 265 kts 134°
2026-05-05 00:41 52.61539 174.48053 7640 ft 264 kts 104°
2026-05-05 00:41 52.61312 174.51062 8252 ft 266 kts 94°
2026-05-05 00:41 52.61183 174.54109 8891 ft 267 kts 94°
2026-05-05 00:41 52.61052 174.57158 9543 ft 269 kts 94°
2026-05-05 00:42 52.60916 174.60262 9996 ft 279 kts 94°
2026-05-05 00:42 52.60774 174.63497 10048 ft 294 kts 94°
2026-05-05 00:42 52.60622 174.66922 10025 ft 296 kts 94°
2026-05-05 00:42 52.60474 174.70237 10018 ft 293 kts 94°
2026-05-05 00:43 52.60322 174.73617 10022 ft 293 kts 94°
2026-05-05 00:43 52.60173 174.76915 10024 ft 293 kts 94°
2026-05-05 00:43 52.60019 174.80299 10029 ft 293 kts 94°
2026-05-05 00:43 52.59867 174.83598 10027 ft 293 kts 94°
2026-05-05 00:44 52.59711 174.86986 10026 ft 293 kts 94°
2026-05-05 00:44 52.59556 174.90316 10029 ft 293 kts 94°
2026-05-05 00:44 52.59400 174.93665 10030 ft 293 kts 94°
2026-05-05 00:44 52.59245 174.96954 10029 ft 293 kts 94°
2026-05-05 00:45 52.59087 175.00296 10033 ft 293 kts 94°
2026-05-05 00:45 52.58927 175.03644 10032 ft 294 kts 94°
2026-05-05 00:45 52.58766 175.07007 10030 ft 294 kts 94°
2026-05-05 00:45 52.58604 175.10348 10031 ft 294 kts 94°
2026-05-05 00:46 52.58442 175.13696 10034 ft 294 kts 94°
2026-05-05 00:46 52.58278 175.17050 10031 ft 294 kts 94°
2026-05-05 00:46 52.58113 175.20399 10032 ft 294 kts 94°
2026-05-05 00:46 52.57947 175.23750 10031 ft 294 kts 94°
2026-05-05 00:47 52.57781 175.27092 10029 ft 294 kts 94°
2026-05-05 00:47 52.57614 175.30440 10030 ft 294 kts 94°
2026-05-05 00:47 52.57445 175.33786 10027 ft 294 kts 94°
2026-05-05 00:47 52.57275 175.37136 10024 ft 294 kts 94°
2026-05-05 00:48 52.57105 175.40483 10029 ft 294 kts 94°
2026-05-05 00:48 52.56933 175.43833 10029 ft 294 kts 94°
2026-05-05 00:48 52.56761 175.47182 10028 ft 294 kts 94°
2026-05-05 00:48 52.56587 175.50526 10029 ft 294 kts 94°
2026-05-05 00:49 52.56413 175.53876 10029 ft 294 kts 94°
2026-05-05 00:49 52.56238 175.57225 10028 ft 294 kts 94°
2026-05-05 00:49 52.56061 175.60570 10032 ft 294 kts 94°
2026-05-05 00:49 52.55884 175.63921 10032 ft 294 kts 94°
2026-05-05 00:50 52.55706 175.67262 10034 ft 294 kts 94°
2026-05-05 00:50 52.55527 175.70609 10031 ft 294 kts 95°
2026-05-05 00:50 52.55347 175.73951 10033 ft 294 kts 95°
2026-05-05 00:50 52.55165 175.77296 10031 ft 294 kts 95°
2026-05-05 00:51 52.54983 175.80645 10030 ft 294 kts 95°
2026-05-05 00:51 52.54801 175.83980 10037 ft 294 kts 95°
2026-05-05 00:51 52.54616 175.87332 10037 ft 294 kts 95°
2026-05-05 00:51 52.54431 175.90681 10037 ft 294 kts 95°
2026-05-05 00:52 52.54247 175.93993 10040 ft 299 kts 95°
2026-05-05 00:52 52.54051 175.97502 10041 ft 310 kts 95°
2026-05-05 00:52 52.53853 176.01023 10043 ft 317 kts 95°
2026-05-05 00:52 52.53646 176.04697 10039 ft 321 kts 95°
2026-05-05 00:53 52.53440 176.08316 10037 ft 324 kts 95°
2026-05-05 00:53 52.53229 176.12008 10038 ft 326 kts 95°
2026-05-05 00:53 52.53017 176.15710 10037 ft 326 kts 95°
2026-05-05 00:53 52.52803 176.19415 10036 ft 326 kts 95°
2026-05-05 00:54 52.52587 176.23129 10042 ft 326 kts 95°
2026-05-05 00:54 52.52371 176.26822 10041 ft 325 kts 95°
2026-05-05 00:54 52.52154 176.30524 10044 ft 326 kts 95°
2026-05-05 00:54 52.51935 176.34232 10041 ft 326 kts 95°
2026-05-05 00:55 52.51715 176.37928 10041 ft 325 kts 95°
2026-05-05 00:55 52.51494 176.41629 10036 ft 326 kts 95°
2026-05-05 00:55 52.51273 176.45326 10038 ft 326 kts 95°
2026-05-05 00:55 52.51049 176.49019 10037 ft 326 kts 95°
2026-05-05 00:56 52.50825 176.52722 10041 ft 326 kts 95°
2026-05-05 00:56 52.50600 176.56415 10036 ft 324 kts 95°
2026-05-05 00:56 52.50374 176.60089 10039 ft 324 kts 95°
2026-05-05 00:56 52.50147 176.63769 10045 ft 325 kts 95°
2026-05-05 00:57 52.49919 176.67456 10046 ft 325 kts 95°
2026-05-05 00:57 52.49690 176.71139 10043 ft 324 kts 95°
2026-05-05 00:57 52.49459 176.74824 10044 ft 325 kts 95°
2026-05-05 00:57 52.49227 176.78511 10045 ft 324 kts 95°
2026-05-05 00:58 52.48995 176.82182 10039 ft 324 kts 95°
2026-05-05 00:58 52.48760 176.85869 10044 ft 325 kts 95°
2026-05-05 00:58 52.48525 176.89549 10042 ft 324 kts 95°
2026-05-05 00:58 52.48289 176.93220 10044 ft 324 kts 95°
2026-05-05 00:59 52.48052 176.96906 10045 ft 324 kts 95°
2026-05-05 00:59 52.47817 177.00528 10041 ft 323 kts 95°
2026-05-05 00:59 52.47575 177.04238 10040 ft 323 kts 95°
2026-05-05 00:59 52.47338 177.07865 10039 ft 324 kts 95°
2026-05-05 01:00 52.47092 177.11587 10039 ft 324 kts 95°
2026-05-05 01:00 52.46849 177.15255 10042 ft 324 kts 95°
2026-05-05 01:00 52.46609 177.18883 10043 ft 325 kts 95°
2026-05-05 01:00 52.46365 177.22556 10038 ft 323 kts 95°
2026-05-05 01:01 52.46120 177.26218 10037 ft 324 kts 95°
2026-05-05 01:01 52.45871 177.29903 10038 ft 325 kts 95°
2026-05-05 01:01 52.45622 177.33571 10035 ft 324 kts 95°
2026-05-05 01:01 52.45373 177.37237 10035 ft 325 kts 95°
2026-05-05 01:02 52.45121 177.40914 10037 ft 325 kts 95°
2026-05-05 01:02 52.44869 177.44586 10035 ft 324 kts 95°
2026-05-05 01:02 52.44616 177.48256 10039 ft 325 kts 95°
2026-05-05 01:02 52.44361 177.51932 10048 ft 325 kts 95°
2026-05-05 01:03 52.44104 177.55615 10034 ft 326 kts 95°
2026-05-05 01:03 52.43846 177.59303 10035 ft 326 kts 95°
2026-05-05 01:03 52.43586 177.62994 10033 ft 326 kts 95°
2026-05-05 01:03 52.43326 177.66677 10036 ft 326 kts 95°
2026-05-05 01:04 52.43064 177.70374 10039 ft 326 kts 95°
2026-05-05 01:04 52.42538 177.77743 10032 ft 326 kts 95°
2026-05-05 01:04 52.42273 177.81433 10036 ft 326 kts 95°
2026-05-05 01:05 52.42006 177.85128 10033 ft 325 kts 95°
2026-05-05 01:05 52.41739 177.88806 10038 ft 326 kts 95°
2026-05-05 01:05 52.41471 177.92494 10032 ft 326 kts 95°
2026-05-05 01:05 52.41201 177.96172 10033 ft 325 kts 95°
2026-05-05 01:06 52.40930 177.99861 10033 ft 326 kts 95°
2026-05-05 01:06 52.40658 178.03551 10042 ft 327 kts 95°
2026-05-05 01:06 52.40388 178.07196 10035 ft 327 kts 95°
2026-05-05 01:06 52.40110 178.10935 10035 ft 327 kts 95°
2026-05-05 01:07 52.39833 178.14627 10038 ft 327 kts 95°
2026-05-05 01:07 52.39557 178.18308 10037 ft 326 kts 95°
2026-05-05 01:07 52.39279 178.21989 10036 ft 327 kts 95°
2026-05-05 01:07 52.39000 178.25680 10036 ft 326 kts 95°
2026-05-05 01:08 52.38723 178.29320 10034 ft 326 kts 95°
2026-05-05 01:08 52.38441 178.33012 10039 ft 327 kts 95°
2026-05-05 01:08 52.38159 178.36693 10035 ft 326 kts 95°
2026-05-05 01:08 52.37875 178.40381 10036 ft 326 kts 95°
2026-05-05 01:09 52.37590 178.44065 10036 ft 327 kts 95°
2026-05-05 01:09 52.37303 178.47759 10035 ft 326 kts 95°
2026-05-05 01:09 52.37016 178.51440 10040 ft 327 kts 95°
2026-05-05 01:09 52.36726 178.55135 10034 ft 327 kts 95°
2026-05-05 01:10 52.36437 178.58807 10031 ft 325 kts 95°
2026-05-05 01:10 52.36147 178.62487 10033 ft 326 kts 95°
2026-05-05 01:10 52.35855 178.66174 10033 ft 327 kts 95°
2026-05-05 01:10 52.35561 178.69862 10028 ft 326 kts 95°
2026-05-05 01:11 52.35268 178.73536 10035 ft 327 kts 95°
2026-05-05 01:11 52.34972 178.77218 10027 ft 327 kts 95°
2026-05-05 01:11 52.34676 178.80891 10032 ft 326 kts 95°
2026-05-05 01:11 52.34379 178.84571 10034 ft 327 kts 95°
2026-05-05 01:12 52.34079 178.88257 10028 ft 326 kts 95°
2026-05-05 01:12 52.33779 178.91936 10028 ft 326 kts 95°
2026-05-05 01:12 52.33478 178.95617 10034 ft 327 kts 95°
2026-05-05 01:12 52.33175 178.99295 10032 ft 326 kts 95°
2026-05-05 01:13 52.32872 179.02967 10036 ft 326 kts 95°
2026-05-05 01:13 52.32568 179.06650 10029 ft 327 kts 95°
2026-05-05 01:13 52.32262 179.10326 10029 ft 326 kts 95°
2026-05-05 01:13 52.31955 179.14002 10031 ft 327 kts 95°
2026-05-05 01:14 52.31647 179.17682 10027 ft 327 kts 95°
2026-05-05 01:14 52.31337 179.21358 10027 ft 326 kts 95°
2026-05-05 01:14 52.31027 179.25034 10026 ft 327 kts 95°
2026-05-05 01:14 52.30715 179.28716 10031 ft 327 kts 96°
2026-05-05 01:15 52.30402 179.32392 10028 ft 327 kts 95°
2026-05-05 01:15 52.30088 179.36068 10031 ft 327 kts 96°
2026-05-05 01:15 52.29776 179.39707 10024 ft 327 kts 95°
2026-05-05 01:15 52.29461 179.43371 10017 ft 326 kts 96°
2026-05-05 01:16 52.29143 179.47050 10014 ft 327 kts 95°
2026-05-05 01:16 52.28823 179.50733 10020 ft 326 kts 95°
2026-05-05 01:16 52.28504 179.54400 10019 ft 327 kts 96°
2026-05-05 01:16 52.28182 179.58083 10022 ft 327 kts 96°
2026-05-05 01:17 52.27860 179.61761 10016 ft 326 kts 96°
2026-05-05 01:17 52.27537 179.65429 10013 ft 327 kts 96°
2026-05-05 01:17 52.27206 179.69108 10010 ft 328 kts 97°
2026-05-05 01:17 52.26322 179.72550 10011 ft 335 kts 122°
2026-05-05 01:18 52.24554 179.75062 10012 ft 346 kts 147°
2026-05-05 01:18 52.22619 179.77302 10011 ft 338 kts 129°
2026-05-05 01:18 52.21466 179.80561 10013 ft 329 kts 103°
2026-05-05 01:18 52.21244 179.84261 10017 ft 324 kts 91°
2026-05-05 01:19 52.20621 179.87816 10012 ft 333 kts 116°
2026-05-05 01:19 52.19075 179.90594 10012 ft 344 kts 141°
2026-05-05 01:19 52.16933 179.92400 10003 ft 345 kts 145°
2026-05-05 01:19 52.15237 179.95024 10007 ft 334 kts 120°
2026-05-05 01:20 52.14451 179.98497 10005 ft 326 kts 94°
2026-05-05 01:20 52.14585 -179.97847 10020 ft 325 kts 83°
2026-05-05 01:20 52.14634 -179.94156 10007 ft 326 kts 87°
2026-05-05 01:20 52.14663 -179.90481 10001 ft 324 kts 87°
2026-05-05 01:21 52.14715 -179.86809 10002 ft 325 kts 86°
2026-05-05 01:21 52.14775 -179.83134 10004 ft 325 kts 86°
2026-05-05 01:21 52.14841 -179.79462 10002 ft 324 kts 86°
2026-05-05 01:21 52.14908 -179.75794 10003 ft 325 kts 86°
2026-05-05 01:22 52.14954 -179.73304 10001 ft 325 kts 86°
2026-05-05 01:22 52.15021 -179.69629 10002 ft 324 kts 86°
2026-05-05 01:22 52.15087 -179.66003 10003 ft 325 kts 86°
2026-05-05 01:22 52.15154 -179.62276 10004 ft 325 kts 86°
2026-05-05 01:23 52.15219 -179.58595 10007 ft 324 kts 86°
2026-05-05 01:23 52.15283 -179.54924 10003 ft 325 kts 86°
2026-05-05 01:23 52.15346 -179.51246 10003 ft 325 kts 86°
2026-05-05 01:23 52.15407 -179.47574 10004 ft 324 kts 86°
2026-05-05 01:24 52.15467 -179.43904 10001 ft 325 kts 86°
2026-05-05 01:24 52.15527 -179.40220 10003 ft 325 kts 86°
2026-05-05 01:24 52.15584 -179.36591 10003 ft 324 kts 86°
2026-05-05 01:24 52.15640 -179.32923 10003 ft 325 kts 86°
2026-05-05 01:25 52.15696 -179.29235 10005 ft 325 kts 86°
2026-05-05 01:25 52.15750 -179.25555 10007 ft 324 kts 86°
2026-05-05 01:25 52.15803 -179.21881 10005 ft 325 kts 86°
2026-05-05 01:25 52.15856 -179.18144 10004 ft 325 kts 86°
2026-05-05 01:26 52.15906 -179.14520 10003 ft 324 kts 86°
2026-05-05 01:26 52.15955 -179.10849 10003 ft 325 kts 86°
2026-05-05 01:26 52.16004 -179.07165 10004 ft 325 kts 86°
2026-05-05 01:26 52.16051 -179.03491 10003 ft 324 kts 86°
2026-05-05 01:27 52.16097 -178.99818 10008 ft 325 kts 86°
2026-05-05 01:27 52.16142 -178.96131 10002 ft 325 kts 87°
2026-05-05 01:27 52.16185 -178.92446 10000 ft 324 kts 86°
2026-05-05 01:27 52.16228 -178.88781 10000 ft 324 kts 87°
2026-05-05 01:28 52.16269 -178.85100 10002 ft 325 kts 86°
2026-05-05 01:28 52.16309 -178.81430 10000 ft 324 kts 87°
2026-05-05 01:28 52.16348 -178.77758 10001 ft 324 kts 87°
2026-05-05 01:28 52.16386 -178.74075 10002 ft 325 kts 86°
2026-05-05 01:29 52.16422 -178.70394 10000 ft 324 kts 86°
2026-05-05 01:29 52.16457 -178.66725 10001 ft 324 kts 87°
2026-05-05 01:29 52.16491 -178.63039 10001 ft 325 kts 86°
2026-05-05 01:29 52.16524 -178.59362 9998 ft 325 kts 86°
2026-05-05 01:30 52.16556 -178.55684 10000 ft 324 kts 87°
2026-05-05 01:30 52.16587 -178.52011 10016 ft 326 kts 87°
2026-05-05 01:30 52.16616 -178.48329 10004 ft 325 kts 86°
2026-05-05 01:30 52.16645 -178.44654 9999 ft 324 kts 86°
2026-05-05 01:31 52.16672 -178.40971 9999 ft 326 kts 86°
2026-05-05 01:31 52.16698 -178.37288 10000 ft 325 kts 86°
2026-05-05 01:31 52.16722 -178.33623 10013 ft 324 kts 86°
2026-05-05 01:31 52.16746 -178.29940 10018 ft 325 kts 87°
2026-05-05 01:32 52.16769 -178.26248 10017 ft 325 kts 87°
2026-05-05 01:32 52.16790 -178.22580 10011 ft 325 kts 87°
2026-05-05 01:32 52.16810 -178.18903 10013 ft 326 kts 87°
2026-05-05 01:32 52.16829 -178.15209 10013 ft 326 kts 87°
2026-05-05 01:33 52.16847 -178.11527 10043 ft 323 kts 87°
2026-05-05 01:33 52.16863 -178.07855 9989 ft 327 kts 88°
2026-05-05 01:33 52.16879 -178.04152 9819 ft 326 kts 87°
2026-05-05 01:33 52.16893 -178.00481 9662 ft 323 kts 87°
2026-05-05 01:34 52.16906 -177.96825 9492 ft 323 kts 88°
2026-05-05 01:34 52.16918 -177.93170 9313 ft 321 kts 88°
2026-05-05 01:34 52.16928 -177.89545 9157 ft 320 kts 87°
2026-05-05 01:34 52.16938 -177.85920 8995 ft 319 kts 88°
2026-05-05 01:35 52.16946 -177.82307 8832 ft 319 kts 88°
2026-05-05 01:35 52.16953 -177.78708 8666 ft 317 kts 88°
2026-05-05 01:35 52.16959 -177.75126 8507 ft 316 kts 88°
2026-05-05 01:35 52.16964 -177.71541 8345 ft 316 kts 88°
2026-05-05 01:36 52.16968 -177.68027 8184 ft 314 kts 88°
2026-05-05 01:36 52.16971 -177.64485 8025 ft 313 kts 88°
2026-05-05 01:36 52.16973 -177.60935 7871 ft 313 kts 88°
2026-05-05 01:36 52.16973 -177.57404 7717 ft 312 kts 88°
2026-05-05 01:37 52.16973 -177.53883 7575 ft 309 kts 88°
2026-05-05 01:37 52.16972 -177.50378 7419 ft 310 kts 88°
2026-05-05 01:37 52.16969 -177.46858 7269 ft 309 kts 88°
2026-05-05 01:37 52.16965 -177.43386 7212 ft 305 kts 88°
2026-05-05 01:38 52.16961 -177.39922 7200 ft 307 kts 88°
2026-05-05 01:38 52.16955 -177.36428 7210 ft 310 kts 88°
2026-05-05 01:38 52.16949 -177.32925 7210 ft 308 kts 88°
2026-05-05 01:38 52.16941 -177.29448 7206 ft 308 kts 88°
2026-05-05 01:39 52.16932 -177.25950 7210 ft 309 kts 88°
2026-05-05 01:39 52.16922 -177.22460 7207 ft 309 kts 88°
2026-05-05 01:39 52.16911 -177.18973 7208 ft 306 kts 89°
2026-05-05 01:39 52.16900 -177.15490 7208 ft 309 kts 89°
2026-05-05 01:40 52.16887 -177.11984 7213 ft 309 kts 88°
2026-05-05 01:40 52.16873 -177.08488 7208 ft 308 kts 88°
2026-05-05 01:40 52.16858 -177.05002 7209 ft 308 kts 88°
2026-05-05 01:40 52.16842 -177.01496 7211 ft 312 kts 88°
2026-05-05 01:41 52.16825 -176.97986 7207 ft 309 kts 88°
2026-05-05 01:41 52.16806 -176.94500 7202 ft 308 kts 89°
2026-05-05 01:41 52.16788 -176.91003 7207 ft 310 kts 89°
2026-05-05 01:41 52.16767 -176.87492 7205 ft 309 kts 89°
2026-05-05 01:42 52.16746 -176.84002 7203 ft 306 kts 88°
2026-05-05 01:42 52.16724 -176.80516 7208 ft 309 kts 89°
2026-05-05 01:42 52.16700 -176.76992 7206 ft 311 kts 88°
2026-05-05 01:42 52.16676 -176.73496 7206 ft 308 kts 89°
2026-05-05 01:43 52.16650 -176.70008 7207 ft 309 kts 89°
2026-05-05 01:43 52.16796 -176.66507 6792 ft 314 kts 73°
2026-05-05 01:43 52.17839 -176.63590 6611 ft 282 kts 44°
2026-05-05 01:43 52.19422 -176.62237 6924 ft 249 kts 22°
2026-05-05 01:44 52.20823 -176.60689 7496 ft 249 kts 52°
2026-05-05 01:44 52.21436 -176.58044 8108 ft 257 kts 84°
2026-05-05 01:44 52.21172 -176.55117 8758 ft 265 kts 100°
2026-05-05 01:44 52.20765 -176.52086 8423 ft 285 kts 98°
2026-05-05 01:45 52.20404 -176.49039 7982 ft 265 kts 98°
2026-05-05 01:45 52.20084 -176.46121 7569 ft 258 kts 96°
2026-05-05 01:45 52.19795 -176.43248 7264 ft 257 kts 96°
2026-05-05 01:45 52.19531 -176.40399 7196 ft 253 kts 95°
2026-05-05 01:46 52.19287 -176.37530 7200 ft 258 kts 94°
2026-05-05 01:46 52.19059 -176.34624 7202 ft 258 kts 94°
2026-05-05 01:46 52.18850 -176.31717 7200 ft 258 kts 94°
2026-05-05 01:46 52.18655 -176.28812 7202 ft 257 kts 93°
2026-05-05 01:47 52.18477 -176.25908 7200 ft 256 kts 92°
2026-05-05 01:47 52.18312 -176.23027 7201 ft 257 kts 93°
2026-05-05 01:47 52.18186 -176.20115 7194 ft 257 kts 91°
2026-05-05 01:47 52.18056 -176.17193 7199 ft 258 kts 92°
2026-05-05 01:48 52.17926 -176.14290 7197 ft 258 kts 91°
2026-05-05 01:48 52.17798 -176.11382 7209 ft 256 kts 91°
2026-05-05 01:48 52.17672 -176.08528 7213 ft 257 kts 91°
2026-05-05 01:48 52.17544 -176.05615 7218 ft 259 kts 92°
2026-05-05 01:49 52.17414 -176.02681 7210 ft 259 kts 92°
2026-05-05 01:49 52.17100 -175.99790 7203 ft 263 kts 109°
2026-05-05 01:49 52.16016 -175.97375 7210 ft 271 kts 136°
2026-05-05 01:49 52.14310 -175.95997 7208 ft 281 kts 163°
2026-05-05 01:50 52.12347 -175.96003 7205 ft 288 kts 191°
2026-05-05 01:50 52.10535 -175.97413 7209 ft 291 kts 213°
2026-05-05 01:50 52.08921 -175.99430 7200 ft 292 kts 219°
2026-05-05 01:50 52.07383 -176.01588 7199 ft 293 kts 220°
2026-05-05 01:51 52.05865 -176.03812 7204 ft 293 kts 221°
2026-05-05 01:51 52.04357 -176.06065 6958 ft 297 kts 222°
2026-05-05 01:51 52.02881 -176.08351 6485 ft 290 kts 226°
2026-05-05 01:51 52.01673 -176.10944 6223 ft 287 kts 238°
2026-05-05 01:52 52.00765 -176.13827 6201 ft 288 kts 247°
2026-05-05 01:52 51.99974 -176.16828 6202 ft 291 kts 247°
2026-05-05 01:52 51.98895 -176.19592 6205 ft 289 kts 238°
2026-05-05 01:52 51.98209 -176.22627 6209 ft 289 kts 263°
2026-05-05 01:53 51.98152 -176.25879 5908 ft 291 kts 278°
2026-05-05 01:53 51.98560 -176.29040 5386 ft 282 kts 288°
2026-05-05 01:53 51.99289 -176.31906 4862 ft 269 kts 308°
2026-05-05 01:53 52.00338 -176.34397 4767 ft 268 kts 309°
2026-05-05 01:54 52.01618 -176.36299 4792 ft 233 kts 334°
2026-05-05 01:54 52.02991 -176.37629 4686 ft 236 kts 328°
2026-05-05 01:54 52.03821 -176.39933 3968 ft 247 kts 278°
2026-05-05 01:54 52.03290 -176.42558 3043 ft 254 kts 228°
2026-05-05 01:55 52.02039 -176.44495 2664 ft 243 kts 221°
2026-05-05 01:55 52.00820 -176.46318 2473 ft 229 kts 220°
2026-05-05 01:55 51.99678 -176.47911 2334 ft 205 kts 217°
2026-05-05 01:55 51.98579 -176.49391 2127 ft 213 kts 217°
2026-05-05 01:56 51.97403 -176.50952 2112 ft 218 kts 218°
2026-05-05 01:56 51.96202 -176.52398 2077 ft 214 kts 213°
2026-05-05 01:56 51.95009 -176.53800 2101 ft 211 kts 215°
2026-05-05 01:56 51.93790 -176.55104 2029 ft 210 kts 205°
2026-05-05 01:57 51.92540 -176.56114 1941 ft 190 kts 202°
2026-05-05 01:57 51.91419 -176.57061 1750 ft 175 kts 209°
2026-05-05 01:57 51.90512 -176.58255 1466 ft 160 kts 228°
2026-05-05 01:57 51.89927 -176.59695 1142 ft 148 kts 242°
2026-05-05 01:58 51.89445 -176.61135 698 ft 145 kts 241°
2026-05-05 01:58 51.88930 -176.62578 163 ft 153 kts 244°
2026-05-05 01:58 51.88446 -176.64007 15 ft 128 kts 243°
2026-05-05 01:58 51.88236 -176.64651 17 ft 12 kts 224°
2026-05-05 01:59 51.88170 -176.64754 17 ft 12 kts 225°
2026-05-05 01:59 51.88098 -176.64819 16 ft 15 kts 192°
2026-05-05 01:59 51.88020 -176.64768 17 ft 10 kts 109°
2026-05-05 01:59 51.88023 -176.64661 14 ft 10 kts 86°
2026-05-05 02:00 51.88004 -176.64554 17 ft 16 kts 124°
2026-05-05 02:00 51.87936 -176.64411 15 ft 11 kts 139°
2026-05-05 02:00 51.87840 -176.64431 14 ft 13 kts 209°
2026-05-05 02:00 51.87829 -176.64490 14 ft 8 kts 277°
2026-05-05 02:01 51.87832 -176.64516 14 ft 0 kts 283°